This is the latest recevied weather packets stored in our database for station/object EA1FWM-12. If no packets are shown the sender has not sent any weather packets the latest 10 day(s).
| Time | Temp. | Humidity | Pressure | Rain* | Wind** | Luminosity | Snow |
|---|---|---|---|---|---|---|---|
| 1777493462 | 10.56° C | 86% | 1013.7 hPa | - | - | - | - |
| 1777492562 | 11.11° C | 86% | 1013.6 hPa | - | - | - | - |
| 1777491662 | 11.11° C | 85% | 1013.4 hPa | - | - | - | - |
| 1777490762 | 11.67° C | 85% | 1012.9 hPa | - | - | - | - |
| 1777489863 | 11.67° C | 85% | 1012.9 hPa | - | - | - | - |
| 1777488963 | 11.67° C | 85% | 1012.7 hPa | - | - | - | - |
| 1777488063 | 12.22° C | 84% | 1012.6 hPa | - | - | - | - |
| 1777487163 | 12.78° C | 84% | 1012.4 hPa | - | - | - | - |
| 1777486263 | 12.78° C | 84% | 1012.2 hPa | - | - | - | - |
| 1777485363 | 12.78° C | 84% | 1012.1 hPa | - | - | - | - |
| 1777484463 | 13.33° C | 83% | 1011.9 hPa | - | - | - | - |
| 1777483564 | 13.89° C | 82% | 1012 hPa | - | - | - | - |
| 1777482665 | 13.89° C | 83% | 1011.9 hPa | - | - | - | - |
| 1777481764 | 13.89° C | 84% | 1011.9 hPa | - | - | - | - |
| 1777480865 | 12.78° C | 85% | 1011.8 hPa | - | - | - | - |
| 1777479965 | 12.22° C | 84% | 1011.8 hPa | - | - | - | - |
| 1777479065 | 12.22° C | 85% | 1011.8 hPa | - | - | - | - |
| 1777478166 | 11.67° C | 85% | 1011.8 hPa | - | - | - | - |
| 1777477265 | 11.11° C | 85% | 1011.7 hPa | - | - | - | - |
| 1777476366 | 11.11° C | 85% | 1011.5 hPa | - | - | - | - |
| 1777475466 | 11.67° C | 85% | 1011.8 hPa | - | - | - | - |
| 1777473668 | 11.11° C | 86% | 1011.7 hPa | - | - | - | - |
| 1777472768 | 10.56° C | 85% | 1011.3 hPa | - | - | - | - |
| 1777471868 | 10.56° C | 85% | 1011.3 hPa | - | - | - | - |
| 1777470968 | 10.56° C | 84% | 1011.1 hPa | - | - | - | - |
* Rain since midnight (hover to see other rain measurements)
** Current wind speed in m/s (hover to see current wind gust speed)